| time (UTC) | temp F | wind direction | speed MPH | gust MPH | rain 1hr in | rain 24hr in | rain mn in | humidity % | barometer mb |
| 20260906183243 | 82 | 279 | 2.0 | 11.0 | 0.00 | 0.00 | 0.00 | 48 | 1016.3 |
| 20260906182437 | 83 | 16 | 2.0 | 11.0 | 0.00 | 0.00 | 0.00 | 47 | 1016.1 |
| 20260906181932 | 82 | 46 | 2.0 | 8.0 | 0.00 | 0.00 | 0.00 | 49 | 1016.2 |
| 20260906181532 | 82 | 11 | 2.0 | 9.0 | 0.00 | 0.00 | 0.00 | 51 | 1016.1 |
| 20260906181510 | 82 | 305 | 2.0 | 9.0 | 0.00 | 0.00 | 0.00 | 52 | 1016.1 |
| 20260906180431 | 82 | 273 | 1.0 | 4.0 | 0.00 | 0.00 | 0.00 | 50 | 1016.2 |
| 20260906180227 | 81 | 100 | 1.0 | 4.0 | 0.00 | 0.00 | 0.00 | 53 | 1016.2 |
| 20260906175430 | 81 | 73 | 1.0 | 3.0 | 0.00 | 0.00 | 0.00 | 53 | 1016.2 |
| 20260906174930 | 82 | 82 | 1.0 | 7.0 | 0.00 | 0.00 | 0.00 | 54 | 1016.3 |
| 20260906174431 | 82 | 100 | 2.0 | 7.0 | 0.00 | 0.00 | 0.00 | 52 | 1016.2 |
| 20260906174034 | 83 | 326 | 2.0 | 11.0 | 0.00 | 0.00 | 0.00 | 50 | 1016.4 |
| 20260906174014 | 82 | 296 | 2.0 | 7.0 | 0.00 | 0.00 | 0.00 | 52 | 1016.3 |
| 20260906172929 | 84 | 254 | 2.0 | 11.0 | 0.00 | 0.00 | 0.00 | 50 | 1016.5 |
| 20260906172431 | 83 | 77 | 2.0 | 7.0 | 0.00 | 0.00 | 0.00 | 50 | 1016.5 |
| 20260906171929 | 83 | 326 | 2.0 | 7.0 | 0.00 | 0.00 | 0.00 | 51 | 1016.6 |
| 20260906171431 | 83 | 46 | 2.0 | 12.0 | 0.00 | 0.00 | 0.00 | 50 | 1016.5 |
| 20260906170930 | 82 | 270 | 2.0 | 12.0 | 0.00 | 0.00 | 0.00 | 52 | 1016.5 |
| 20260906170429 | 82 | 100 | 1.0 | 4.0 | 0.00 | 0.00 | 0.00 | 52 | 1016.5 |
| 20260906165929 | 83 | 94 | 1.0 | 4.0 | 0.00 | 0.00 | 0.00 | 52 | 1016.5 |
| 20260906165431 | 82 | 296 | 2.0 | 7.0 | 0.00 | 0.00 | 0.00 | 51 | 1016.5 |
| 20260906165228 | 81 | 54 | 2.0 | 8.0 | 0.00 | 0.00 | 0.00 | 52 | 1016.5 |
| 20260906164430 | 81 | 18 | 2.0 | 9.0 | 0.00 | 0.00 | 0.00 | 54 | 1016.6 |
| 20260906163931 | 81 | 41 | 2.0 | 9.0 | 0.00 | 0.00 | 0.00 | 54 | 1016.6 |
| 20260906163432 | 81 | 268 | 2.0 | 9.0 | 0.00 | 0.00 | 0.00 | 52 | 1016.6 |
| 20260906162930 | 81 | 46 | 2.0 | 9.0 | 0.00 | 0.00 | 0.00 | 51 | 1016.6 |
| 20260906162430 | 81 | 4 | 2.0 | 9.0 | 0.00 | 0.00 | 0.00 | 53 | 1016.6 |
| 20260906161930 | 81 | 63 | 2.0 | 7.0 | 0.00 | 0.00 | 0.00 | 54 | 1016.7 |
| 20260906161724 | 81 | 305 | 2.0 | 7.0 | 0.00 | 0.00 | 0.00 | 55 | 1016.8 |
| 20260906160930 | 80 | 37 | 1.0 | 5.0 | 0.00 | 0.00 | 0.00 | 54 | 1016.8 |
| 20260906160430 | 80 | 353 | 2.0 | 8.0 | 0.00 | 0.00 | 0.00 | 54 | 1016.8 |
| 20260906155929 | 79 | 73 | 2.0 | 8.0 | 0.00 | 0.00 | 0.00 | 57 | 1016.9 |
| 20260906155721 | 79 | 326 | 2.0 | 9.0 | 0.00 | 0.00 | 0.00 | 56 | 1016.8 |
| 20260906154930 | 79 | 11 | 1.0 | 9.0 | 0.00 | 0.00 | 0.00 | 56 | 1016.9 |
| 20260906154431 | 79 | 54 | 2.0 | 12.0 | 0.00 | 0.00 | 0.00 | 60 | 1016.9 |
| 20260906154227 | 78 | 287 | 4.0 | 12.0 | 0.00 | 0.00 | 0.00 | 60 | 1016.8 |
| 20260906153429 | 78 | 54 | 4.0 | 14.0 | 0.00 | 0.00 | 0.00 | 59 | 1016.9 |
| 20260906152930 | 77 | 258 | 3.0 | 14.0 | 0.00 | 0.00 | 0.00 | 60 | 1016.9 |
| 20260906152425 | 77 | 229 | 2.0 | 11.0 | 0.00 | 0.00 | 0.00 | 62 | 1017.0 |
| 20260906151920 | 76 | 312 | 2.0 | 9.0 | 0.00 | 0.00 | 0.00 | 65 | 1016.9 |
| 20260906151414 | 74 | 11 | 1.0 | 8.0 | 0.00 | 0.00 | 0.00 | 68 | 1016.8 |
| 20260906150910 | 74 | 296 | 2.0 | 9.0 | 0.00 | 0.00 | 0.00 | 69 | 1016.8 |
| 20260906150707 | 73 | 47 | 3.0 | 9.0 | 0.00 | 0.00 | 0.00 | 70 | 1016.7 |
| 20260906145911 | 73 | 21 | 2.0 | 8.0 | 0.00 | 0.00 | 0.00 | 72 | 1016.6 |
| 20260906145408 | 72 | 250 | 2.0 | 8.0 | 0.00 | 0.00 | 0.00 | 73 | 1016.7 |
| 20260906144908 | 72 | 63 | 2.0 | 7.0 | 0.00 | 0.00 | 0.00 | 75 | 1016.7 |
| 20260906144408 | 71 | 143 | 2.0 | 9.0 | 0.00 | 0.00 | 0.00 | 75 | 1016.6 |
| 20260906144200 | 71 | 307 | 1.0 | 9.0 | 0.00 | 0.00 | 0.00 | 76 | 1016.6 |
| 20260906143702 | 71 | 54 | 1.0 | 4.0 | 0.00 | 0.00 | 0.00 | 77 | 1016.7 |
| 20260906142907 | 70 | 21 | 1.0 | 4.0 | 0.00 | 0.00 | 0.00 | 78 | 1016.6 |
| 20260906142408 | 70 | 0 | 1.0 | 4.0 | 0.00 | 0.00 | 0.00 | 78 | 1016.6 |
| 20260906141908 | 70 | 296 | 1.0 | 4.0 | 0.00 | 0.00 | 0.00 | 79 | 1016.6 |
| 20260906141408 | 69 | 11 | 2.0 | 8.0 | 0.00 | 0.00 | 0.00 | 79 | 1016.6 |
| 20260906140907 | 69 | 326 | 2.0 | 8.0 | 0.00 | 0.00 | 0.00 | 81 | 1016.5 |
| 20260906140407 | 68 | 249 | 1.0 | 5.0 | 0.00 | 0.00 | 0.00 | 83 | 1016.5 |
| 20260906135907 | 68 | 326 | 1.0 | 4.0 | 0.00 | 0.00 | 0.00 | 84 | 1016.5 |
| 20260906135407 | 67 | 54 | 1.0 | 4.0 | 0.00 | 0.00 | 0.00 | 85 | 1016.5 |
| 20260906134901 | 67 | 353 | 1.0 | 4.0 | 0.00 | 0.00 | 0.00 | 86 | 1016.5 |
| 20260906134401 | 66 | 44 | 1.0 | 4.0 | 0.00 | 0.00 | 0.00 | 88 | 1016.6 |
| 20260906133902 | 66 | 44 | 1.0 | 4.0 | 0.00 | 0.00 | 0.00 | 90 | 1016.6 |
| 20260906133654 | 66 | 37 | 1.0 | 4.0 | 0.00 | 0.00 | 0.00 | 91 | 1016.6 |
| 20260906132902 | 65 | 67 | 1.0 | 4.0 | 0.00 | 0.00 | 0.00 | 92 | 1016.6 |
| 20260906132402 | 65 | 54 | 1.0 | 4.0 | 0.00 | 0.00 | 0.00 | 93 | 1016.5 |
| 20260906131902 | 65 | 255 | 1.0 | 4.0 | 0.00 | 0.00 | 0.00 | 93 | 1016.4 |
| 20260906131403 | 64 | 11 | 1.0 | 4.0 | 0.00 | 0.00 | 0.00 | 93 | 1016.5 |
| 20260906130902 | 64 | 353 | 1.0 | 3.0 | 0.00 | 0.00 | 0.00 | 93 | 1016.4 |
| 20260906130402 | 64 | 326 | 1.0 | 3.0 | 0.00 | 0.00 | 0.00 | 94 | 1016.5 |
| 20260906125902 | 63 | 260 | 1.0 | 3.0 | 0.00 | 0.00 | 0.00 | 94 | 1016.5 |
| 20260906125403 | 63 | 54 | 1.0 | 3.0 | 0.00 | 0.00 | 0.00 | 94 | 1016.5 |
| 20260906124903 | 63 | 54 | 1.0 | 3.0 | 0.00 | 0.00 | 0.00 | 94 | 1016.4 |
| 20260906124402 | 63 | 11 | 1.0 | 3.0 | 0.00 | 0.00 | 0.00 | 93 | 1016.5 |
| 20260906123902 | 63 | 234 | 0.0 | 3.0 | 0.00 | 0.00 | 0.00 | 93 | 1016.5 |
| 20260906123402 | 62 | 279 | 0.0 | 3.0 | 0.00 | 0.00 | 0.00 | 93 | 1016.5 |
| 20260906122901 | 62 | 100 | 0.0 | 1.0 | 0.00 | 0.00 | 0.00 | 93 | 1016.3 |
| 20260906122404 | 62 | 82 | 0.0 | 3.0 | 0.00 | 0.00 | 0.00 | 93 | 1016.3 |
| 20260906121903 | 62 | 54 | 0.0 | 3.0 | 0.00 | 0.00 | 0.00 | 93 | 1016.3 |
| 20260906121402 | 62 | 54 | 0.0 | 3.0 | 0.00 | 0.00 | 0.00 | 93 | 1016.2 |
| 20260906120904 | 61 | 234 | 0.0 | 3.0 | 0.00 | 0.00 | 0.00 | 93 | 1016.0 |
| 20260906120404 | 61 | 54 | 0.0 | 3.0 | 0.00 | 0.00 | 0.00 | 93 | 1016.0 |
| 20260906115902 | 61 | 279 | 0.0 | 3.0 | 0.00 | 0.00 | 0.00 | 92 | 1015.9 |
| 20260906115404 | 61 | 54 | 0.0 | 1.0 | 0.00 | 0.00 | 0.00 | 92 | 1015.8 |
| 20260906115002 | 61 | 143 | 0.0 | 1.0 | 0.00 | 0.00 | 0.00 | 92 | 1015.7 |
| 20260906114941 | 61 | 279 | 0.0 | 1.0 | 0.00 | 0.00 | 0.00 | 92 | 1015.8 |
| 20260906113901 | 61 | 54 | 0.0 | 1.0 | 0.00 | 0.00 | 0.00 | 92 | 1015.8 |
| 20260906113402 | 61 | 11 | 0.0 | 1.0 | 0.00 | 0.00 | 0.00 | 92 | 1015.7 |
| 20260906112901 | 61 | 11 | 0.0 | 1.0 | 0.00 | 0.00 | 0.00 | 92 | 1015.7 |
| 20260906112651 | 60 | 279 | 0.0 | 1.0 | 0.00 | 0.00 | 0.00 | 92 | 1015.6 |
| 20260906112154 | 60 | 143 | 0.0 | 1.0 | 0.00 | 0.00 | 0.00 | 92 | 1015.7 |
| 20260906111402 | 60 | 117 | 0.0 | 1.0 | 0.00 | 0.00 | 0.00 | 92 | 1015.6 |
| 20260906110901 | 61 | 326 | 0.0 | 1.0 | 0.00 | 0.00 | 0.00 | 92 | 1015.6 |
| 20260906110403 | 61 | 54 | 0.0 | 1.0 | 0.00 | 0.00 | 0.00 | 92 | 1015.7 |
| 20260906105903 | 61 | 125 | 0.0 | 1.0 | 0.00 | 0.00 | 0.00 | 92 | 1015.6 |
| 20260906105403 | 61 | 188 | 0.0 | 1.0 | 0.00 | 0.00 | 0.00 | 92 | 1015.5 |
| 20260906105158 | 61 | 11 | 0.0 | 1.0 | 0.00 | 0.00 | 0.00 | 92 | 1015.5 |
| 20260906104401 | 61 | 100 | 0.0 | 1.0 | 0.00 | 0.00 | 0.00 | 92 | 1015.3 |
| 20260906103904 | 61 | 11 | 0.0 | 3.0 | 0.00 | 0.00 | 0.00 | 91 | 1015.2 |
| 20260906103700 | 61 | 54 | 0.0 | 3.0 | 0.00 | 0.00 | 0.00 | 91 | 1015.2 |
| 20260906102902 | 61 | 100 | 0.0 | 1.0 | 0.00 | 0.00 | 0.00 | 91 | 1015.1 |
| 20260906102401 | 61 | 234 | 0.0 | 1.0 | 0.00 | 0.00 | 0.00 | 92 | 1015.1 |
| 20260906101901 | 61 | 28 | 0.0 | 1.0 | 0.00 | 0.00 | 0.00 | 92 | 1015.0 |
| 20260906101402 | 61 | 326 | 0.0 | 1.0 | 0.00 | 0.00 | 0.00 | 91 | 1015.0 |
| 20260906100902 | 61 | 11 | 0.0 | 1.0 | 0.00 | 0.00 | 0.00 | 91 | 1014.9 |
| 20260906100401 | 62 | 54 | 0.0 | 1.0 | 0.00 | 0.00 | 0.00 | 91 | 1014.8 |
| 20260906095903 | 62 | 100 | 0.0 | 1.0 | 0.00 | 0.00 | 0.00 | 91 | 1014.8 |
| 20260906095403 | 62 | 143 | 0.0 | 1.0 | 0.00 | 0.00 | 0.00 | 91 | 1014.7 |
| 20260906095157 | 62 | 54 | 0.0 | 1.0 | 0.00 | 0.00 | 0.00 | 91 | 1014.7 |
| 20260906094402 | 62 | 54 | 0.0 | 1.0 | 0.00 | 0.00 | 0.00 | 91 | 1014.6 |
| 20260906093903 | 62 | 100 | 0.0 | 1.0 | 0.00 | 0.00 | 0.00 | 91 | 1014.4 |
| 20260906093402 | 62 | 279 | 0.0 | 1.0 | 0.00 | 0.00 | 0.00 | 91 | 1014.5 |
| 20260906092904 | 62 | 11 | 0.0 | 1.0 | 0.00 | 0.00 | 0.00 | 91 | 1014.5 |
| 20260906092403 | 62 | 325 | 0.0 | 1.0 | 0.00 | 0.00 | 0.00 | 91 | 1014.5 |
| 20260906091904 | 62 | 54 | 0.0 | 3.0 | 0.00 | 0.00 | 0.00 | 91 | 1014.3 |
| 20260906091403 | 62 | 261 | 0.0 | 3.0 | 0.00 | 0.00 | 0.00 | 91 | 1014.3 |
| 20260906090901 | 62 | 260 | 0.0 | 1.0 | 0.00 | 0.00 | 0.00 | 91 | 1014.3 |
| 20260906090401 | 62 | 11 | 0.0 | 1.0 | 0.00 | 0.00 | 0.00 | 91 | 1014.1 |
| 20260906085901 | 62 | 326 | 0.0 | 1.0 | 0.00 | 0.00 | 0.00 | 91 | 1014.1 |
| 20260906085401 | 63 | 326 | 0.0 | 1.0 | 0.00 | 0.00 | 0.00 | 91 | 1014.2 |
| 20260906084901 | 63 | 326 | 0.0 | 1.0 | 0.00 | 0.00 | 0.00 | 91 | 1014.1 |
| 20260906084651 | 63 | 11 | 0.0 | 1.0 | 0.00 | 0.00 | 0.00 | 91 | 1014.2 |
| 20260906083900 | 63 | 279 | 0.0 | 1.0 | 0.00 | 0.00 | 0.00 | 91 | 1014.1 |
| 20260906083401 | 63 | 54 | 0.0 | 1.0 | 0.00 | 0.00 | 0.00 | 91 | 1014.1 |
| 20260906083153 | 63 | 326 | 0.0 | 1.0 | 0.00 | 0.00 | 0.00 | 91 | 1014.0 |
| 20260906082401 | 63 | 279 | 0.0 | 1.0 | 0.00 | 0.00 | 0.00 | 91 | 1014.1 |
| 20260906081903 | 63 | 54 | 0.0 | 3.0 | 0.00 | 0.00 | 0.00 | 90 | 1014.1 |
| 20260906081402 | 63 | 268 | 0.0 | 3.0 | 0.00 | 0.00 | 0.00 | 90 | 1014.1 |
| 20260906080904 | 64 | 279 | 0.0 | 1.0 | 0.00 | 0.00 | 0.00 | 90 | 1014.0 |
| 20260906080403 | 64 | 326 | 0.0 | 1.0 | 0.00 | 0.00 | 0.00 | 90 | 1014.0 |
| 20260906075901 | 64 | 11 | 0.0 | 1.0 | 0.00 | 0.00 | 0.00 | 90 | 1014.0 |
| 20260906075402 | 64 | 54 | 0.0 | 1.0 | 0.00 | 0.00 | 0.00 | 90 | 1014.0 |
| 20260906074902 | 64 | 28 | 0.0 | 1.0 | 0.00 | 0.00 | 0.00 | 90 | 1014.1 |
| 20260906074653 | 64 | 326 | 0.0 | 1.0 | 0.00 | 0.00 | 0.00 | 90 | 1014.0 |
| 20260906073902 | 64 | 11 | 0.0 | 1.0 | 0.00 | 0.00 | 0.00 | 90 | 1013.9 |
| 20260906073401 | 64 | 11 | 0.0 | 3.0 | 0.00 | 0.00 | 0.00 | 90 | 1014.0 |
| 20260906072901 | 64 | 143 | 0.0 | 3.0 | 0.00 | 0.00 | 0.00 | 90 | 1014.0 |
| 20260906072403 | 65 | 11 | 0.0 | 1.0 | 0.00 | 0.00 | 0.00 | 90 | 1014.0 |
| 20260906071902 | 65 | 260 | 0.0 | 1.0 | 0.00 | 0.00 | 0.00 | 90 | 1014.0 |
| 20260906071403 | 65 | 326 | 0.0 | 1.0 | 0.00 | 0.00 | 0.00 | 90 | 1014.0 |
| 20260906070902 | 65 | 11 | 0.0 | 1.0 | 0.00 | 0.00 | 0.00 | 90 | 1014.0 |
| 20260906070651 | 65 | 326 | 0.0 | 1.0 | 0.00 | 0.00 | 0.00 | 90 | 1013.8 |
| 20260906065901 | 65 | 326 | 0.0 | 1.0 | 0.00 | 0.00 | 0.00 | 90 | 1013.8 |
| 20260906065405 | 65 | 54 | 0.0 | 1.0 | 0.00 | 0.00 | 0.00 | 90 | 1013.9 |
| 20260906064950 | 65 | 11 | 0.0 | 1.0 | 0.00 | 0.00 | 0.00 | 89 | 1013.9 |
| 20260906064934 | 65 | 279 | 0.0 | 1.0 | 0.00 | 0.00 | 0.00 | 89 | 1013.9 |
| 20260906063904 | 65 | 11 | 0.0 | 1.0 | 0.00 | 0.00 | 0.00 | 89 | 1013.8 |
| 20260906063403 | 66 | 54 | 0.0 | 1.0 | 0.00 | 0.00 | 0.00 | 89 | 1013.8 |
| 20260906062901 | 66 | 353 | 0.0 | 1.0 | 0.00 | 0.00 | 0.00 | 89 | 1013.9 |
| 20260906062453 | 66 | 54 | 0.0 | 1.0 | 0.00 | 0.00 | 0.00 | 89 | 1014.0 |
| 20260906062436 | 66 | 82 | 0.0 | 1.0 | 0.00 | 0.00 | 0.00 | 89 | 1014.0 |
| 20260906061655 | 66 | 11 | 0.0 | 1.0 | 0.00 | 0.00 | 0.00 | 89 | 1013.9 |
| 20260906060901 | 66 | 54 | 0.0 | 1.0 | 0.00 | 0.00 | 0.00 | 89 | 1013.9 |
| 20260906060402 | 67 | 326 | 0.0 | 1.0 | 0.00 | 0.00 | 0.00 | 88 | 1013.9 |
| 20260906055903 | 67 | 11 | 0.0 | 1.0 | 0.00 | 0.00 | 0.00 | 88 | 1013.8 |
| 20260906055401 | 67 | 11 | 0.0 | 1.0 | 0.00 | 0.00 | 0.00 | 88 | 1013.7 |
| 20260906054902 | 67 | 353 | 0.0 | 1.0 | 0.00 | 0.00 | 0.00 | 88 | 1013.8 |
| 20260906054402 | 67 | 353 | 0.0 | 1.0 | 0.00 | 0.00 | 0.00 | 88 | 1013.9 |
| 20260906053901 | 67 | 279 | 0.0 | 1.0 | 0.00 | 0.00 | 0.00 | 88 | 1013.9 |
| 20260906053652 | 67 | 28 | 0.0 | 1.0 | 0.00 | 0.00 | 0.00 | 88 | 1013.9 |
| 20260906052903 | 68 | 54 | 0.0 | 1.0 | 0.00 | 0.00 | 0.00 | 88 | 1013.8 |
| 20260906052403 | 68 | 326 | 0.0 | 1.0 | 0.00 | 0.00 | 0.00 | 88 | 1013.9 |
| 20260906051901 | 68 | 326 | 0.0 | 1.0 | 0.00 | 0.00 | 0.00 | 87 | 1013.9 |
| 20260906051403 | 68 | 11 | 0.0 | 1.0 | 0.00 | 0.00 | 0.00 | 87 | 1014.0 |
| 20260906050902 | 68 | 326 | 0.0 | 1.0 | 0.00 | 0.00 | 0.00 | 87 | 1013.9 |
| 20260906050401 | 69 | 353 | 0.0 | 1.0 | 0.00 | 0.00 | 0.00 | 86 | 1014.0 |
| 20260906045903 | 69 | 11 | 0.0 | 1.0 | 0.00 | 0.00 | 0.00 | 86 | 1014.0 |
| 20260906045654 | 69 | 100 | 0.0 | 1.0 | 0.00 | 0.00 | 0.00 | 86 | 1014.2 |
| 20260906044901 | 69 | 28 | 0.0 | 1.0 | 0.00 | 0.00 | 0.00 | 86 | 1014.3 |
| 20260906044403 | 69 | 54 | 0.0 | 1.0 | 0.00 | 0.00 | 0.00 | 86 | 1014.4 |
| 20260906043901 | 69 | 28 | 0.0 | 1.0 | 0.00 | 0.00 | 0.00 | 86 | 1014.5 |
| 20260906043401 | 70 | 11 | 0.0 | 1.0 | 0.00 | 0.00 | 0.00 | 85 | 1014.5 |
| 20260906042902 | 70 | 54 | 0.0 | 1.0 | 0.00 | 0.00 | 0.00 | 85 | 1014.6 |
| 20260906042650 | 70 | 279 | 0.0 | 1.0 | 0.00 | 0.00 | 0.00 | 85 | 1014.6 |
| 20260906041858 | 70 | 54 | 0.0 | 1.0 | 0.00 | 0.00 | 0.00 | 85 | 1014.6 |
| 20260906041352 | 71 | 11 | 0.0 | 1.0 | 0.00 | 0.00 | 0.00 | 84 | 1014.5 |
| 20260906040850 | 71 | 54 | 0.0 | 1.0 | 0.00 | 0.00 | 0.00 | 84 | 1014.5 |
| 20260906040716 | 71 | 11 | 0.0 | 1.0 | 0.00 | 0.00 | 0.00 | 84 | 1014.4 |
| 20260906040406 | 71 | 11 | 0.0 | 1.0 | 0.00 | 0.00 | 0.00 | 84 | 1014.5 |
| 20260906035331 | 71 | 11 | 0.0 | 1.0 | 0.00 | 0.00 | 0.00 | 84 | 1014.5 |
| 20260906034829 | 71 | 11 | 0.0 | 1.0 | 0.00 | 0.00 | 0.00 | 84 | 1014.6 |
| 20260906034330 | 71 | 37 | 0.0 | 1.0 | 0.00 | 0.00 | 0.00 | 84 | 1014.5 |
| 20260906033830 | 71 | 54 | 0.0 | 1.0 | 0.00 | 0.00 | 0.00 | 83 | 1014.5 |
| 20260906033329 | 72 | 11 | 0.0 | 1.0 | 0.00 | 0.00 | 0.00 | 83 | 1014.6 |
| 20260906032829 | 72 | 11 | 0.0 | 3.0 | 0.00 | 0.00 | 0.00 | 83 | 1014.6 |
| 20260906032330 | 72 | 260 | 0.0 | 3.0 | 0.00 | 0.00 | 0.00 | 82 | 1014.6 |
| 20260906031829 | 72 | 279 | 0.0 | 1.0 | 0.00 | 0.00 | 0.00 | 82 | 1014.6 |
| 20260906031329 | 72 | 326 | 0.0 | 1.0 | 0.00 | 0.00 | 0.00 | 82 | 1014.6 |
| 20260906030830 | 72 | 11 | 0.0 | 0.0 | 0.00 | 0.00 | 0.00 | 81 | 1014.7 |
| 20260906030330 | 72 | 11 | 0.0 | 0.0 | 0.00 | 0.00 | 0.00 | 81 | 1014.5 |
| 20260906025832 | 72 | 11 | 0.0 | 3.0 | 0.00 | 0.00 | 0.00 | 81 | 1014.4 |
| 20260906025621 | 72 | 279 | 0.0 | 3.0 | 0.00 | 0.00 | 0.00 | 81 | 1014.3 |
| 20260906024829 | 72 | 289 | 0.0 | 1.0 | 0.00 | 0.00 | 0.00 | 81 | 1014.4 |
| 20260906024329 | 72 | 143 | 0.0 | 1.0 | 0.00 | 0.00 | 0.00 | 81 | 1014.4 |
| 20260906023830 | 72 | 11 | 0.0 | 1.0 | 0.00 | 0.00 | 0.00 | 80 | 1014.4 |
| 20260906023623 | 72 | 234 | 0.0 | 1.0 | 0.00 | 0.00 | 0.00 | 81 | 1014.4 |
| 20260906023124 | 72 | 54 | 0.0 | 1.0 | 0.00 | 0.00 | 0.00 | 81 | 1014.3 |
| 20260906022329 | 73 | 54 | 0.0 | 1.0 | 0.00 | 0.00 | 0.00 | 81 | 1014.3 |
| 20260906021830 | 73 | 326 | 0.0 | 1.0 | 0.00 | 0.00 | 0.00 | 80 | 1014.2 |
| 20260906021330 | 73 | 279 | 0.0 | 1.0 | 0.00 | 0.00 | 0.00 | 80 | 1014.2 |
| 20260906020830 | 73 | 54 | 0.0 | 1.0 | 0.00 | 0.00 | 0.00 | 80 | 1014.2 |
| 20260906020616 | 73 | 54 | 0.0 | 1.0 | 0.00 | 0.00 | 0.00 | 80 | 1014.4 |
| 20260906015830 | 73 | 54 | 0.0 | 1.0 | 0.00 | 0.00 | 0.00 | 80 | 1014.3 |
| 20260906015329 | 73 | 54 | 0.0 | 1.0 | 0.00 | 0.00 | 0.00 | 79 | 1014.3 |
| 20260906014829 | 73 | 54 | 0.0 | 3.0 | 0.00 | 0.00 | 0.00 | 79 | 1014.2 |
| 20260906014329 | 73 | 11 | 0.0 | 3.0 | 0.00 | 0.00 | 0.00 | 80 | 1014.0 |
| 20260906013829 | 73 | 100 | 0.0 | 1.0 | 0.00 | 0.00 | 0.00 | 80 | 1014.1 |
| 20260906013330 | 73 | 234 | 0.0 | 1.0 | 0.00 | 0.00 | 0.00 | 80 | 1013.9 |
| 20260906012831 | 73 | 11 | 0.0 | 1.0 | 0.00 | 0.00 | 0.00 | 80 | 1013.9 |
| 20260906012329 | 73 | 353 | 0.0 | 3.0 | 0.00 | 0.00 | 0.00 | 79 | 1013.8 |
| 20260906011831 | 74 | 54 | 0.0 | 3.0 | 0.00 | 0.00 | 0.00 | 79 | 1013.8 |
| 20260906011330 | 74 | 54 | 0.0 | 1.0 | 0.00 | 0.00 | 0.00 | 79 | 1013.7 |
| 20260906010829 | 74 | 11 | 0.0 | 1.0 | 0.00 | 0.00 | 0.00 | 79 | 1013.7 |
| 20260906010328 | 74 | 143 | 0.0 | 1.0 | 0.00 | 0.00 | 0.00 | 78 | 1013.6 |
| 20260906005828 | 74 | 11 | 0.0 | 3.0 | 0.00 | 0.00 | 0.00 | 78 | 1013.5 |
| 20260906005332 | 75 | 54 | 1.0 | 3.0 | 0.00 | 0.00 | 0.00 | 77 | 1013.5 |
| 20260906004831 | 75 | 11 | 1.0 | 1.0 | 0.00 | 0.00 | 0.00 | 76 | 1013.5 |
| 20260906004613 | 75 | 11 | 0.0 | 1.0 | 0.00 | 0.00 | 0.00 | 76 | 1013.4 |
| 20260906003829 | 76 | 28 | 0.0 | 1.0 | 0.00 | 0.00 | 0.00 | 75 | 1013.4 |
| 20260906003329 | 76 | 28 | 0.0 | 1.0 | 0.00 | 0.00 | 0.00 | 73 | 1013.4 |
| 20260906002832 | 76 | 11 | 0.0 | 1.0 | 0.00 | 0.00 | 0.00 | 74 | 1013.3 |
| 20260906002330 | 76 | 54 | 0.0 | 1.0 | 0.00 | 0.00 | 0.00 | 73 | 1013.3 |
| 20260906001831 | 77 | 54 | 0.0 | 1.0 | 0.00 | 0.00 | 0.00 | 72 | 1013.3 |
| 20260906001330 | 77 | 28 | 0.0 | 1.0 | 0.00 | 0.00 | 0.00 | 72 | 1013.3 |
| 20260906000829 | 77 | 11 | 0.0 | 1.0 | 0.00 | 0.00 | 0.00 | 71 | 1013.2 |
| 20260906000333 | 78 | 54 | 0.0 | 1.0 | 0.00 | 0.00 | 0.00 | 70 | 1013.2 |
| 20260906000120 | 78 | 82 | 0.0 | 1.0 | 0.00 | 0.00 | 0.00 | 69 | 1013.1 |
| 20260905235331 | 78 | 326 | 0.0 | 1.0 | 0.00 | 0.00 | 0.00 | 69 | 1013.1 |
| 20260905234829 | 78 | 11 | 0.0 | 1.0 | 0.00 | 0.00 | 0.00 | 69 | 1013.1 |
| 20260905234329 | 79 | 143 | 0.0 | 1.0 | 0.00 | 0.00 | 0.00 | 68 | 1013.0 |
| 20260905233831 | 79 | 100 | 0.0 | 1.0 | 0.00 | 0.00 | 0.00 | 66 | 1012.9 |
| 20260905233328 | 79 | 54 | 0.0 | 1.0 | 0.00 | 0.00 | 0.00 | 66 | 1012.8 |
| 20260905232830 | 79 | 100 | 0.0 | 1.0 | 0.00 | 0.00 | 0.00 | 66 | 1012.7 |
| 20260905232329 | 79 | 28 | 0.0 | 3.0 | 0.00 | 0.00 | 0.00 | 65 | 1012.7 |
| 20260905231829 | 80 | 54 | 1.0 | 3.0 | 0.00 | 0.00 | 0.00 | 65 | 1012.7 |
| 20260905231330 | 80 | 82 | 0.0 | 3.0 | 0.00 | 0.00 | 0.00 | 64 | 1012.7 |
| 20260905230829 | 80 | 82 | 0.0 | 3.0 | 0.00 | 0.00 | 0.00 | 63 | 1012.6 |
| 20260905230432 | 80 | 143 | 0.0 | 3.0 | 0.00 | 0.00 | 0.00 | 63 | 1012.6 |
| 20260905230409 | 80 | 11 | 0.0 | 3.0 | 0.00 | 0.00 | 0.00 | 63 | 1012.6 |
| 20260905225330 | 81 | 11 | 0.0 | 3.0 | 0.00 | 0.00 | 0.00 | 64 | 1012.6 |
| 20260905225129 | 81 | 143 | 0.0 | 1.0 | 0.00 | 0.00 | 0.00 | 63 | 1012.6 |
| 20260905224331 | 81 | 54 | 0.0 | 1.0 | 0.00 | 0.00 | 0.00 | 62 | 1012.5 |
| 20260905223830 | 81 | 11 | 0.0 | 3.0 | 0.00 | 0.00 | 0.00 | 63 | 1012.4 |
| 20260905223329 | 81 | 82 | 1.0 | 3.0 | 0.00 | 0.00 | 0.00 | 62 | 1012.4 |
| 20260905223125 | 81 | 11 | 1.0 | 3.0 | 0.00 | 0.00 | 0.00 | 62 | 1012.5 |
| 20260905222330 | 82 | 11 | 0.0 | 3.0 | 0.00 | 0.00 | 0.00 | 63 | 1012.5 |
| 20260905221829 | 82 | 11 | 0.0 | 3.0 | 0.00 | 0.00 | 0.00 | 62 | 1012.4 |
| 20260905221329 | 82 | 100 | 1.0 | 3.0 | 0.00 | 0.00 | 0.00 | 61 | 1012.4 |
| 20260905220829 | 82 | 326 | 1.0 | 3.0 | 0.00 | 0.00 | 0.00 | 61 | 1012.4 |
| 20260905220329 | 82 | 41 | 1.0 | 3.0 | 0.00 | 0.00 | 0.00 | 62 | 1012.3 |
| 20260905215830 | 82 | 326 | 1.0 | 3.0 | 0.00 | 0.00 | 0.00 | 62 | 1012.3 |
| 20260905215330 | 81 | 21 | 1.0 | 4.0 | 0.00 | 0.00 | 0.00 | 61 | 1012.3 |
| 20260905214830 | 81 | 54 | 1.0 | 4.0 | 0.00 | 0.00 | 0.00 | 62 | 1012.2 |
| 20260905214330 | 81 | 82 | 1.0 | 5.0 | 0.00 | 0.00 | 0.00 | 62 | 1012.2 |
| 20260905213830 | 81 | 46 | 1.0 | 5.0 | 0.00 | 0.00 | 0.00 | 63 | 1012.2 |
| 20260905213332 | 81 | 67 | 1.0 | 5.0 | 0.00 | 0.00 | 0.00 | 64 | 1012.1 |
| 20260905212830 | 81 | 100 | 1.0 | 5.0 | 0.00 | 0.00 | 0.00 | 64 | 1012.0 |
| 20260905212329 | 81 | 11 | 1.0 | 4.0 | 0.00 | 0.00 | 0.00 | 62 | 1012.0 |
| 20260905211823 | 81 | 54 | 1.0 | 4.0 | 0.00 | 0.00 | 0.00 | 63 | 1011.8 |
| 20260905211607 | 81 | 37 | 1.0 | 3.0 | 0.00 | 0.00 | 0.00 | 63 | 1011.9 |
| 20260905211103 | 81 | 54 | 1.0 | 3.0 | 0.00 | 0.00 | 0.00 | 63 | 1011.7 |
| 20260905210308 | 82 | 54 | 0.0 | 3.0 | 0.00 | 0.00 | 0.00 | 63 | 1011.8 |
| 20260905210103 | 82 | 326 | 1.0 | 3.0 | 0.00 | 0.00 | 0.00 | 63 | 1011.8 |
| 20260905205308 | 82 | 326 | 1.0 | 4.0 | 0.00 | 0.00 | 0.00 | 63 | 1011.8 |
| 20260905204807 | 82 | 0 | 1.0 | 4.0 | 0.00 | 0.00 | 0.00 | 63 | 1011.9 |
| 20260905204307 | 82 | 28 | 1.0 | 3.0 | 0.00 | 0.01 | 0.00 | 63 | 1011.8 |
| 20260905203804 | 82 | 73 | 1.0 | 3.0 | 0.00 | 0.01 | 0.00 | 64 | 1011.9 |
| 20260905203304 | 82 | 54 | 1.0 | 4.0 | 0.00 | 0.01 | 0.00 | 64 | 1011.8 |
| 20260905202806 | 82 | 54 | 1.0 | 5.0 | 0.00 | 0.01 | 0.00 | 63 | 1011.9 |
| 20260905202306 | 82 | 37 | 1.0 | 5.0 | 0.00 | 0.01 | 0.00 | 64 | 1011.8 |
| 20260905201803 | 83 | 61 | 1.0 | 4.0 | 0.00 | 0.01 | 0.00 | 65 | 1011.9 |
| 20260905201302 | 83 | 296 | 1.0 | 5.0 | 0.00 | 0.01 | 0.00 | 64 | 1011.8 |
| 20260905200802 | 83 | 0 | 1.0 | 5.0 | 0.00 | 0.01 | 0.00 | 64 | 1011.9 |
| 20260905200303 | 83 | 11 | 1.0 | 7.0 | 0.00 | 0.01 | 0.00 | 64 | 1011.9 |
| 20260905195804 | 83 | 0 | 2.0 | 14.0 | 0.00 | 0.01 | 0.00 | 62 | 1011.9 |
| 20260905195306 | 83 | 338 | 2.0 | 14.0 | 0.00 | 0.01 | 0.00 | 62 | 1012.0 |
| 20260905194802 | 83 | 265 | 2.0 | 7.0 | 0.00 | 0.01 | 0.00 | 61 | 1012.0 |
| 20260905194302 | 84 | 25 | 3.0 | 14.0 | 0.00 | 0.01 | 0.00 | 61 | 1012.0 |
| 20260905194053 | 84 | 312 | 2.0 | 14.0 | 0.00 | 0.01 | 0.00 | 61 | 1012.2 |
| 20260905193600 | 84 | 261 | 1.0 | 7.0 | 0.00 | 0.01 | 0.00 | 61 | 1012.2 |
| 20260905192801 | 83 | 28 | 2.0 | 11.0 | 0.00 | 0.01 | 0.00 | 62 | 1012.2 |
| 20260905192553 | 84 | 143 | 2.0 | 11.0 | 0.00 | 0.01 | 0.00 | 62 | 1012.1 |
| 20260905191801 | 83 | 326 | 2.0 | 7.0 | 0.00 | 0.01 | 0.00 | 62 | 1012.1 |
| 20260905191301 | 84 | 0 | 1.0 | 4.0 | 0.00 | 0.01 | 0.00 | 62 | 1012.2 |
| 20260905190801 | 83 | 291 | 2.0 | 7.0 | 0.00 | 0.01 | 0.00 | 62 | 1012.2 |
| 20260905190302 | 83 | 41 | 2.0 | 7.0 | 0.00 | 0.01 | 0.00 | 66 | 1012.2 |
| 20260905185802 | 83 | 345 | 2.0 | 5.0 | 0.00 | 0.01 | 0.00 | 65 | 1012.1 |
| 20260905185305 | 82 | 54 | 1.0 | 4.0 | 0.00 | 0.01 | 0.00 | 67 | 1012.3 |
| 20260905184801 | 82 | 143 | 1.0 | 7.0 | 0.00 | 0.01 | 0.00 | 66 | 1012.4 |
| 20260905184301 | 82 | 350 | 1.0 | 7.0 | 0.00 | 0.01 | 0.00 | 66 | 1012.4 |
| 20260905184057 | 82 | 326 | 1.0 | 4.0 | 0.00 | 0.01 | 0.00 | 68 | 1012.3 |